Location: ActonStarParty
(42.4766°N, 71.4538°W)
Time: 13:21:33
(UTC-05:00)

Daily predictions for brighter satellites

Satellite Brightness Start Highest point End
(mag) Time Altitude Azimuth Time Altitude Azimuth Time Altitude Azimuth
Cosmos 2154 Rocket 4.1 16:31:41 10° N 16:37:56 89° E 16:44:11 10° S
COSMOS 2406 3.2 16:33:39 10° NNW 16:39:22 66° ENE 16:45:03 10° SE
ATLAS 2AS CENTAUR R/B 3.3 16:32:56 10° NNW 16:40:48 49° NE 16:48:13 10° ESE
Cosmos 1544 Rocket 4.4 16:38:14 10° NNE 16:42:08 29° ENE 16:46:00 10° SE
COSMO-SKYMED 1 4.4 16:40:41 10° ENE 16:42:48 13° E 16:44:56 10° ESE
Cosmos 1975 Rocket 3.1 16:42:01 10° S 16:46:14 57° E 16:50:29 10° NNE
Cosmos 1125 Rocket 3.7 16:41:02 10° SSW 16:46:20 79° WNW 16:51:42 10° NNE
ASTEX 1 4.4 16:43:43 10° N 16:48:34 52° W 16:53:24 10° SSW
Meteor 1-5 Rocket 4.2 16:44:42 10° N 16:50:04 61° ENE 16:55:33 10° SSE
Thor Agena Rocket 3.8 16:48:07 10° NNE 16:53:12 52° E 16:58:18 10° S
ISS -3.3 16:52:57 10° SW 16:56:14 83° SE 16:59:20 11° ENE
Cosmos 2082 Rocket 3.6 16:55:46 10° N 16:59:19 17° NE 17:02:53 10° E
Cosmos 1833 Rocket 4.2 16:59:56 10° N 17:03:14 15° NE 17:05:51 12° ENE
Cosmos 1484 Rocket 3.8 17:00:24 10° ESE 17:03:24 23° ENE 17:06:23 10° NNE
Cosmos 2251 Rocket 3.7 17:00:10 10° N 17:05:22 48° ENE 17:10:30 10° SE
CZ-3B DEB 2.2 17:04:00 10° SSW 17:07:22 55° SE 17:15:06 11° NE
AQUARIUS 4.1 17:05:32 10° SSE 17:10:01 77° ENE 17:14:32 10° N
YAOGAN 1 2.5 17:06:23 10° SSE 17:10:41 72° ENE 17:15:00 10° N
SL-8 Rocket 3.9 17:08:23 10° N 17:14:35 80° E 17:20:44 10° S
SJ-7 4.4 17:12:35 10° SSE 17:16:48 79° ENE 17:21:04 10° N
CZ-2C R/B 2.5 17:14:30 10° SSE 17:19:28 86° WSW 17:24:36 10° NNW
Cosmos 1238 Rocket 2.2 17:17:07 10° S 17:19:59 50° E 17:22:50 11° NNE
SL-27 R/B 2.4 17:16:28 10° NNW 17:20:10 78° ENE 17:23:48 10° SSE
Cosmos 1500 4.1 17:17:37 10° NNE 17:20:55 27° ENE 17:24:12 10° SE
Meteor 2-19 Rocket 4.4 17:14:59 10° N 17:21:05 80° E 17:27:07 10° S
Cosmos 2263 Rocket 4.3 17:19:11 10° W 17:23:27 22° NW 17:27:46 10° N
Cosmos 2366 rocket 4.0 17:18:51 10° N 17:25:14 71° E 17:31:31 10° SSE
CZ-4 R/B 4.3 17:21:56 10° SSE 17:26:05 79° ENE 17:30:15 10° N
MONITOR-E 4.3 17:23:16 10° SSE 17:26:23 52° ENE 17:29:31 10° N
SL-24 DEB 4.5 17:21:53 10° NNE 17:26:30 49° E 17:31:03 10° SSE
SMAP 3.3 17:22:24 10° S 17:27:02 72° WSW 17:31:43 10° NNW
Cosmos 2218 Rocket 4.0 17:22:06 10° N 17:28:26 85° E 17:34:39 10° S
Cosmos 1959 Rocket 4.5 17:23:54 10° N 17:30:06 87° E 17:36:21 10° S
SKYMED 2 3.9 17:27:15 11° NNE 17:31:15 42° E 17:35:22 10° S
Okean 1 3.5 17:27:44 10° SSE 17:31:37 48° E 17:35:16 12° NNE
Cosmos 1455 Rocket 2.9 17:27:26 10° N 17:31:52 76° E 17:36:16 10° SSE
COSMOS 2441 4.3 17:28:15 10° SSE 17:33:05 70° ENE 17:37:58 10° N
Meteor 1-18 Rocket 4.2 17:28:05 10° S 17:33:41 73° E 17:39:25 10° NNE
Abrixas 3.7 17:35:10 10° NW 17:37:45 26° N 17:38:04 25° NNE
OTV 4 3.3 17:39:57 10° WSW 17:41:45 15° SSW 17:43:32 10° SSE
GEOS 3 Rocket 3.6 17:37:13 10° SE 17:42:14 59° NE 17:47:17 10° NNW
Cosmos 1809 Rocket 4.5 17:37:50 10° N 17:43:54 56° ENE 17:49:53 10° SSE
Cosmos 1812 2.7 17:40:25 10° S 17:44:16 82° W 17:48:09 10° N
Cosmos 1844 Rocket 3.4 17:43:21 10° SW 17:48:48 53° WNW 17:54:19 10° NNE
Cosmos 1346 Rocket 2.9 17:46:23 10° S 17:50:10 49° E 17:51:16 37° NE
MSX 4.2 17:49:52 10° S 17:55:35 66° WSW 18:01:20 10° NNW
SL-8 R/B 3.7 17:54:41 10° SW 17:59:26 72° SSE 18:00:58 42° ENE
Cosmos 1821 Rocket 4.2 17:54:35 10° N 18:00:20 41° ENE 18:06:02 10° SE
CZ-4 R/B 4.2 17:58:40 10° SW 18:01:52 21° W 18:05:05 10° NW
Cosmos 1844 4.3 17:56:51 10° SW 18:02:17 55° WNW 18:07:16 12° NNE
Cosmos 2297 3.9 17:58:34 10° S 18:03:54 46° ESE 18:05:19 38° ENE
USA 234 4.1 18:01:00 19° NE 18:05:19 42° NNW 18:11:22 10° W
COSMOS 2487 3.7 18:03:46 10° NNW 18:05:47 31° N 18:05:47 31° N
Cosmos 1975 3.6 18:10:00 10° NNW 18:13:58 53° W 18:17:54 10° S
Meteor 2-21 4.4 18:08:25 10° N 18:14:38 87° W 18:20:47 10° S
NOSS 3-4 (A) 4.3 18:10:01 10° NNW 18:16:22 37° NE 18:17:05 36° NE
NOSS 3-4 (C) 4.3 18:10:07 10° NNW 18:16:28 36° NE 18:17:09 36° NE
COSMO-SKYMED 1 3.2 18:15:50 15° N 18:19:19 56° WNW 18:23:33 10° SSW
Cosmos 2278 Rocket 2.5 18:13:45 10° SW 18:19:21 66° WNW 18:23:00 22° NNE
Meteor 1-19 Rocket 4.2 18:16:02 10° S 18:21:44 65° E 18:24:08 36° NNE
Nadezhda 3 Rocket 3.9 18:16:36 10° S 18:22:48 89° WNW 18:29:06 10° N
NOSS 3-3 (A) 4.1 18:17:24 10° SW 18:23:36 77° NW 18:26:54 32° NNE
NOSS 3-3 (C) 4.1 18:17:30 10° SW 18:23:42 77° NW 18:26:58 32° NNE
Tiangong 1 3.7 18:29:04 10° SW 18:29:52 16° SSW 18:29:52 16° SSW
ATLAS 2AS CENTAUR R/B 4.0 18:24:17 10° NW 18:31:50 45° WSW 18:38:50 10° S
ISS -0.9 18:30:20 10° WNW 18:32:01 20° NW 18:32:01 20° NW
Meteor 2-14 Rocket 4.5 18:31:29 10° N 18:37:39 79° W 18:43:46 10° S
Meteor 1-13 Rocket 4.3 18:32:11 10° SSW 18:37:49 76° W 18:41:41 22° N
Genesis I 4.2 18:34:04 10° NW 18:36:53 43° WNW 18:36:53 43° WNW
Cosmos 2082 Rocket 2.1 18:38:30 10° NNW 18:44:12 88° WSW 18:45:09 64° SSE
Cosmos 1833 Rocket 2.6 18:42:21 10° NNW 18:47:38 77° N 18:47:38 77° N
Timation 1 Rocket 4.2 18:44:50 10° SSW 18:50:48 88° ESE 18:50:53 87° ENE
BREEZE M DEB (TANK) 4.1 19:00:09 10° WSW 19:04:05 34° W 19:04:05 34° W
BREEZE-M R/B 4.3 19:03:00 10° WSW 19:10:11 51° NW 19:10:11 51° NW
Cosmos 1934 Rocket 4.5 19:16:19 10° NNW 19:22:22 57° W 19:28:28 10° S
ATLAS 3B CENTAUR R/B 4.3 19:27:38 10° WSW 19:37:31 27° SSW 19:38:07 26° SSW
CZ-3B DEB 4.0 19:37:30 10° WNW 19:43:28 44° N 19:43:53 44° N
